Regional Weather Roundup
Issued by NWS

Home | Current Version | Previous Version | Text Only | Print | Product List | Glossary On
Versions: 1 2 3 4 5 6 7 8 9 10 11 12 13 14 15 16 17 18 19 20 21 22 23 24 25 26 27
000
ASUS44 KLIX 281213
RWRLA
LOUISIANA WEATHER ROUNDUP
NATIONAL WEATHER SERVICE NEW ORLEANS LA
700 AM CDT FRI APR 28 2017

NOTE: "FAIR" INDICATES FEW OR NO CLOUDS BELOW 12,000 FEET WITH NO
      SIGNIFICANT WEATHER AND/OR OBSTRUCTIONS TO VISIBILITY.
      SKY/WX - SKY CONDITION AND SIGNIFICANT WEATHER.
      TMP - AIR TEMPERATURE.    DP   - DEWPOINT TEMPERATURE.
      RH  - RELATIVE HUMIDITY.  PRES - PRESSURE.
      HX  - HEAT INDEX.         WCI  - WIND CHILL INDEX.

*  THESE STATIONS ARE NOT NWS OR FAA STATIONS AND ARE NOT UNDER
   NWS QUALITY CONTROL.

LAZ040-048-061>063-065-066-069-281300-
SOUTHEAST LOUISIANA

CITY           SKY/WX    TMP DP  RH WIND       PRES   REMARKS
N.O. INTL ARPT MOCLDY    78  74  87 S15       29.82R
6HR MIN TEMP:  76; 6HR MAX TEMP:  78;

N.O. LAKEFRONT CLOUDY    79  74  84 S15       29.84R
6HR MIN TEMP:  77; 6HR MAX TEMP:  79;

N.O. DOWNTOWN*   N/A     79  74  84 S12G22      N/A
6HR MIN TEMP:  77; 6HR MAX TEMP:  79;

RESERVE*       NOT AVBL
SLIDELL        CLOUDY    78  74  87 SE13      29.84R
6HR MIN TEMP:  76; 6HR MAX TEMP:  78;

BATON ROUGE    CLOUDY    77  72  84 S13       29.78R
6HR MIN TEMP:  68; 6HR MAX TEMP:  78;

BOOTHVILLE     CLOUDY    77  76  96 SE10      29.86R FOG
6HR MIN TEMP:  76; 6HR MAX TEMP:  77;

BELLE CHASSE   CLOUDY    79  75  87 S15G23    29.83R
BOGALUSA*      NOT AVBL
GALLIANO*      CLOUDY    78  72  82 S14G21    29.82S
6HR MIN TEMP:  77; 6HR MAX TEMP:  78;

NEW ROADS*     CLOUDY    76  72  86 S8        29.78R
6HR MIN TEMP:  68; 6HR MAX TEMP:  76;

GONZALES*      CLOUDY    78  72  81 S12       29.79R
6HR MIN TEMP:  74; 6HR MAX TEMP:  78;

HAMMOND*       CLOUDY    77  72  83 S16       29.81R
HOUMA*         CLOUDY    79  73  83 S16G23    29.81R FOG
PORT FOURCHON* CLOUDY    77  75  94 S13G18    29.83R FOG

$$

LAZ041-044-053-054-281300-
SOUTHWEST LOUISIANA

CITY           SKY/WX    TMP DP  RH WIND       PRES   REMARKS
LAKE CHARLES   CLOUDY    76  73  91 S8        29.72R FOG
6HR MIN TEMP:  73; 6HR MAX TEMP:  77;

LAFAYETTE      CLOUDY    81  74  79 S10G21    29.76R
6HR MIN TEMP:  77; 6HR MAX TEMP:  81; 6HR PCP: TRACE;

PATTERSON      CLOUDY    77  73  87 S13G18    29.80R
6HR MIN TEMP:  77; 6HR MAX TEMP:  78;

SALT POINT       N/A     77  73  87 VRB6        N/A
6HR MIN TEMP:  76; 6HR MAX TEMP:  77;

NEW IBERIA     CLOUDY    78  71  79 S18G25    29.77R
6HR MIN TEMP:  75; 6HR MAX TEMP:  78;

CHENAULT AIRPK CLOUDY    68  65  92 S9        29.74R FOG
6HR MIN TEMP:  63; 6HR MAX TEMP:  68;


$$

LAZ027-028-281300-
CENTRAL LOUISIANA

CITY           SKY/WX    TMP DP  RH WIND       PRES   REMARKS
FORT POLK      CLOUDY    72  70  93 SE10      29.72R
6HR MIN TEMP:  66; 6HR MAX TEMP:  72;

ALEXANDRIA INT CLOUDY    72  69  90 SE10      29.73R FOG
6HR MIN TEMP:  63; 6HR MAX TEMP:  72;

ALEXANDRIA     CLOUDY    66  65  96 CALM      29.75R
6HR MIN TEMP:  58; 6HR MAX TEMP:  67;


$$

LAZ001-002-281300-
NORTHWEST LOUISIANA

CITY           SKY/WX    TMP DP  RH WIND       PRES   REMARKS
SHREVEPORT     CLOUDY    67  63  87 SE13      29.65S
6HR MIN TEMP:  62; 6HR MAX TEMP:  67;

BARKSDALE AFB  CLOUDY    67  65  93 SE12      29.65F
6HR MIN TEMP:  56; 6HR MAX TEMP:  67;

DTN SHREVEPORT CLOUDY    68  63  84 SE7       29.66S
6HR MIN TEMP:  62; 6HR MAX TEMP:  68;


$$

LAZ014-016-281300-
NORTHEAST LOUISIANA

CITY           SKY/WX    TMP DP  RH WIND       PRES   REMARKS
MONROE         CLOUDY    67  63  87 SE5       29.74R
6HR MIN TEMP:  61; 6HR MAX TEMP:  67;

TALLULAH       MOCLDY    66  64  93 SE9       29.78S
6HR MIN TEMP:  59; 6HR MAX TEMP:  66;


$$





USA.gov is the U.S. government's official web portal to all federal, state and local government web resources and services.